Regional Weather Roundup
Issued by NWS Cleveland, OH

Home | Current Version | Previous Version | Text Only | Print | Product List | Glossary Off
Versions: 1 2 3 4 5 6 7 8 9 10 11 12 13 14 15 16 17 18 19 20 21 22 23 24 25 26 27 28 29 30 31 32 33 34 35 36 37 38 39 40 41 42 43 44 45 46 47 48 49 50

000
ASUS41 KCLE 160900
RWRCLE
OHIO REGIONAL WEATHER ROUNDUP
NATIONAL WEATHER SERVICE WILMINGTON, OH
400 AM EST MON JAN 16 2017

NOTE: "FAIR" INDICATES FEW OR NO CLOUDS BELOW 12,000 FEET WITH NO
SIGNIFICANT WEATHER AND/OR OBSTRUCTIONS TO VISIBILITY.

OHZ001>008-015>018-024>027-034-035-043-044-161000-
   NORTHWEST OHIO

CITY           SKY/WX    TMP DP  RH WIND       PRES   REMARKS
DEFIANCE       MOCLDY    29  24  82 NE3       30.33S HAZE
FINDLAY        CLOUDY    30  25  81 E5        30.31F WCI  25
TOLEDO EXPRESS FAIR      21  21 100 CALM      30.34F FOG
TOLEDO EXEC    FAIR      25  22  88 E3        30.35F FOG
LIMA           CLOUDY    32  30  92 SE7       30.30F FOG     WCI  26
$$

OHZ009>014-019>023-028>033-038-089-161000-
   NORTHEAST OHIO

CITY           SKY/WX    TMP DP  RH WIND       PRES   REMARKS
CLE-HOPKINS    MOCLDY    24  18  77 CALM      30.38S FOG
CLE-LAKEFRONT  FAIR      27  21  78 SE7       30.36S WCI  19
CUY CO. ARPT   NOT AVBL
LORAIN-ELYRIA  FAIR      21  17  84 S3        30.36S FOG
ASHTABULA      FAIR      21  18  88 E3        30.36
AKRON-CANTON   FAIR      27  19  72 E5        30.33F WCI  22
WOOSTER        NOT AVBL
MANSFIELD      CLOUDY    28  24  85 NE3       30.31F
YOUNGSTOWN     MOCLDY    18  15  88 SE5       30.34F WCI  11
$$

OHZ042-051>053-060>062-070>072-077>081-161000-
  SOUTHWEST OHIO

CITY           SKY/WX    TMP DP  RH WIND       PRES   REMARKS
CINC-COVINGTON CLOUDY    38  37  97 E6        30.28S FOG
CINC-LUNKEN    CLOUDY    39  38  96 NE3       30.31F FOG
HAMILTON       CLOUDY    38  37  97 E5        30.31F FOG
DAYTON         NOT AVBL
WRIGHT-PAT AFB CLOUDY    35  35  99 E5        30.30F
DAYTON GENERAL CLOUDY    36  34  92 E6        30.29S FOG
WILMINGTON     CLOUDY    35  35 100 SE7       30.29F FOG     WCI  29
$$

OHZ036-037-039>041-045>050-054>059-063>069-073>076-082>088-161000-
  CENTRAL AND SOUTHEAST OHIO

CITY           SKY/WX    TMP DP  RH WIND       PRES   REMARKS
COLUMBUS       MOCLDY    34  30  85 NE3       30.33S
OSU AIRPORT    CLOUDY    32  30  92 CALM      30.33R FOG
BOLTON FIELD   NOT AVBL
RICKENBACK AFB NOT AVBL
NEWARK         MOCLDY    31  27  85 CALM      30.33F
MARION         FAIR      30  27  88 S6        30.32F FOG     WCI  24
LANCASTER      CLOUDY    35  31  85 CALM      30.33F FOG
ZANESVILLE     FAIR      31  27  85 NE3       30.33F FOG
NEW PHILLY     MOCLDY    27  25  92 CALM      30.35F
$$




USA.gov is the U.S. government's official web portal to all federal, state and local government web resources and services.